Theta_e
316 316 315 315 314 314 314 313 312 311 309 325 331 337 330 324 322 331 335 336 331 324 319 321 319 317 318 318 319 318 316 314 315 313 314 311 313 312 310 312 310 312 311 310 309 310 307 308 308 310 311 312 315 316 317 316 313 312 311 314 314 322 309 306 307 311 314 315 317 317 316 314 311 312 312 310 306 308 306 305 307 303 304 302 302 300 305
316 315 315 315 314 314 314 313 312 311 309 316 323 326 322 325 325 326 334 335 331 321 314 314 316 316 319 318 316 317 316 314 314 313 313 312 313 312 312 312 313 310 313 311 308 312 304 310 309 308 312 311 317 317 316 315 311 309 313 311 314 306 313 308 302 301 304 307 312 311 314 313 311 311 313 313 311 310 310 310 310 303 304 306 302 297 305
316 316 315 315 314 314 314 313 312 311 310 312 324 325 326 325 327 328 328 333 328 317 319 317 316 317 314 314 313 314 314 315 316 315 314 315 314 312 312 314 313 311 313 310 310 311 308 306 312 312 311 311 316 316 315 316 312 313 319 324 316 308 307 305 297 296 295 296 299 301 304 307 310 311 311 312 310 309 307 302 305 298 306 308 304 303 311
316 316 315 315 314 314 314 313 312 311 310 308 321 327 323 321 315 320 324 326 325 323 323 319 317 315 316 313 314 315 312 315 316 315 314 315 314 313 312 314 313 309 311 309 308 308 312 307 307 309 309 312 316 317 317 315 313 322 321 318 314 306 307 306 305 303 300 304 306 310 311 309 305 306 307 308 309 310 309 308 304 301 307 305 308 309 309
317 316 316 315 314 314 313 313 312 310 309 308 321 330 325 323 316 317 315 320 319 317 320 319 318 314 317 312 314 312 312 314 314 315 310 316 314 313 311 311 309 310 309 308 308 310 310 312 310 307 308 310 312 315 314 314 317 325 315 315 310 307 304 305 307 306 307 309 309 312 312 309 310 309 308 309 308 310 308 306 304 313 307 300 309 314 310
318 318 317 316 315 315 314 312 310 309 309 307 322 325 326 315 322 322 324 314 309 311 314 317 316 316 316 314 316 314 313 313 310 313 315 315 316 308 313 313 310 310 310 308 306 310 309 310 307 313 311 312 313 311 314 313 319 316 313 316 311 308 306 310 309 308 309 309 308 309 308 308 309 309 308 306 308 313 310 309 311 311 305 301 309 311 309
319 318 318 317 317 316 316 313 310 308 307 311 330 327 328 326 325 324 325 316 319 317 318 318 316 316 316 315 315 312 312 311 314 314 312 313 312 311 306 312 312 312 312 309 306 312 306 308 312 312 312 310 310 308 310 313 316 315 314 314 317 311 306 309 309 307 307 308 308 309 308 308 308 308 308 309 309 312 311 311 312 311 311 312 312 311 310
319 319 318 318 317 317 316 313 311 310 307 323 329 329 323 322 321 321 323 324 318 319 319 318 316 313 318 312 313 313 312 311 314 315 313 309 312 315 309 311 313 312 311 311 307 312 312 312 311 312 311 309 313 312 310 310 315 316 313 313 316 311 308 310 308 306 305 307 309 309 309 307 306 308 309 309 308 308 310 311 312 314 312 312 311 311 311
319 319 318 318 317 317 316 314 312 310 309 335 333 329 327 326 332 330 322 318 318 319 318 316 314 311 316 312 313 314 313 311 314 314 314 311 312 314 312 315 314 313 311 312 309 315 314 312 312 313 312 307 313 311 312 315 311 313 312 313 315 313 308 312 310 305 306 310 309 309 309 309 307 309 313 312 308 306 311 310 315 312 309 310 310 308 311
319 319 319 318 317 317 316 315 312 310 311 330 332 326 331 330 333 333 327 317 323 316 318 316 314 310 315 315 315 313 314 315 315 312 316 315 314 314 315 315 312 313 313 313 315 318 316 314 314 314 314 315 314 315 315 314 311 310 311 315 311 312 309 307 306 302 302 307 308 308 308 306 303 309 312 311 316 315 315 316 317 317 314 309 307 308 316
319 319 319 318 318 317 316 315 313 311 317 321 325 329 328 323 324 328 331 318 318 318 316 316 313 316 317 318 316 317 315 314 315 308 314 317 318 317 315 313 312 312 316 318 321 321 319 317 316 316 315 315 315 316 315 315 314 314 313 312 313 315 312 309 311 303 304 307 307 308 303 296 302 311 317 316 313 314 312 311 313 319 318 314 315 316 320
319 319 319 318 318 317 317 316 314 312 312 319 323 328 333 329 328 334 331 319 316 321 316 313 315 316 315 317 317 315 313 313 313 315 311 317 317 317 316 315 310 308 319 324 323 322 319 317 317 319 316 315 315 315 315 313 314 320 318 312 312 313 311 307 310 304 303 307 306 301 296 298 310 320 319 319 319 319 314 314 316 316 319 319 316 318 320
318 319 319 318 318 317 317 316 314 312 311 316 322 328 335 333 328 328 329 325 319 319 316 314 317 317 318 317 314 314 315 318 318 317 316 314 315 317 317 315 314 317 321 319 318 315 310 310 314 315 316 317 316 315 314 315 314 317 316 317 315 311 310 310 308 307 306 303 302 295 297 310 317 318 318 321 320 317 314 311 317 318 317 318 315 316 319
318 318 318 318 318 318 317 316 315 315 312 312 320 329 335 332 326 327 328 322 319 322 320 316 317 317 315 315 314 316 317 316 316 317 312 315 313 315 319 319 318 320 319 318 314 314 311 312 309 311 312 314 313 311 314 316 316 316 316 316 316 314 313 310 305 311 301 303 302 301 309 308 312 315 315 316 313 312 310 304 309 316 319 318 317 319 320
318 318 318 318 318 318 317 317 316 315 313 310 321 329 336 335 331 329 331 330 323 322 321 312 316 317 315 316 316 314 315 314 313 313 315 320 315 316 319 321 321 319 318 314 311 315 312 311 308 308 310 308 303 307 313 310 316 317 317 316 316 316 309 313 305 304 307 301 299 300 300 298 306 314 319 323 322 321 320 313 307 317 319 320 318 317 318
318 318 318 318 318 318 317 317 316 315 313 311 321 328 336 339 337 334 330 326 326 315 318 321 321 318 315 317 317 314 312 315 317 317 315 317 316 316 318 319 319 319 316 314 313 314 315 310 308 306 303 306 310 308 306 310 309 313 316 316 314 314 314 313 308 305 306 303 299 298 297 301 309 315 319 321 323 322 320 311 304 314 319 319 320 318 319
318 318 318 318 318 318 317 317 316 315 314 310 316 324 333 341 336 331 329 331 331 318 322 323 322 319 315 310 313 314 314 310 315 312 311 314 316 317 317 318 319 315 316 313 315 311 309 308 307 306 307 308 305 307 309 306 305 306 312 313 313 310 309 308 305 304 305 303 300 298 305 304 313 318 317 318 323 322 317 300 299 314 321 321 320 319 320
318 318 318 318 318 318 318 317 316 315 313 310 315 323 330 340 339 336 330 329 325 322 323 322 319 315 314 317 316 318 318 315 313 314 309 317 316 317 317 315 312 317 318 312 316 312 310 309 305 306 305 311 313 310 300 308 306 306 306 309 307 307 308 307 302 302 303 304 302 305 307 314 317 317 320 322 321 316 302 297 306 317 321 322 321 322 322
318 318 318 318 318 318 317 317 316 315 313 310 317 328 335 338 338 337 331 327 327 321 323 324 321 317 318 321 320 318 315 313 314 313 312 309 313 317 314 314 315 313 314 310 315 311 308 309 314 310 307 311 312 305 311 306 306 311 311 306 307 307 308 308 308 304 303 304 302 302 306 312 317 320 320 322 314 302 301 313 320 321 321 323 322 321 323
318 318 318 318 318 318 317 317 317 316 315 312 315 320 326 337 336 337 328 324 325 322 326 319 318 319 319 315 316 319 318 315 314 310 311 311 320 319 316 309 315 315 317 315 308 313 309 307 310 311 304 306 312 314 309 309 311 309 308 309 303 305 303 302 303 307 307 306 302 299 293 313 321 319 317 322 311 311 319 321 323 324 322 321 323 323 323
318 317 317 317 317 317 317 317 316 316 315 314 313 321 327 337 334 337 336 332 324 321 320 324 323 323 321 323 322 323 321 318 317 312 320 319 324 320 308 313 313 313 312 314 306 310 311 307 310 310 312 310 311 311 305 309 310 316 312 310 309 313 304 303 307 310 302 302 299 299 310 316 320 318 310 317 322 322 324 322 318 322 323 322 322 323 325
318 317 317 317 317 317 317 316 316 316 315 314 314 324 323 328 334 335 335 336 328 324 327 331 326 322 324 325 326 326 324 324 324 327 322 321 324 318 317 319 320 320 322 321 316 314 314 312 314 308 307 309 314 307 311 303 302 312 316 314 304 317 311 314 305 311 307 305 308 315 319 320 321 320 320 322 324 325 325 323 322 321 323 324 322 323 325
318 317 317 317 317 317 317 316 316 316 315 315 315 320 319 324 331 337 337 330 335 335 334 330 326 324 325 325 327 328 328 328 326 327 326 323 318 315 316 319 319 323 324 324 320 318 317 314 310 314 311 311 311 310 312 309 305 312 309 313 312 319 318 322 314 311 318 318 321 320 320 320 321 322 324 323 322 323 323 324 320 323 325 326 324 324 325
318 318 317 317 317 317 316 316 316 315 315 315 315 318 320 325 328 333 333 333 330 321 326 328 319 317 320 321 323 325 322 323 326 330 332 331 318 318 320 322 322 320 321 325 324 320 317 316 315 313 307 315 312 307 305 305 308 313 311 309 315 318 319 317 310 316 309 302 318 317 316 319 320 321 324 325 326 325 325 323 322 323 324 324 326 326 326
318 318 317 317 316 316 316 316 316 315 314 314 315 319 323 327 334 334 329 322 326 325 318 320 319 325 327 328 328 323 325 329 326 328 327 327 327 320 318 323 327 324 324 325 326 319 320 312 314 313 308 318 317 308 314 309 310 315 308 311 312 314 319 314 314 313 310 310 316 318 319 321 323 321 321 320 322 324 324 324 324 325 326 326 326 327 325
318 317 317 316 316 316 316 315 315 315 314 313 314 318 320 323 331 336 332 330 327 326 320 316 323 326 328 324 320 322 327 324 326 325 326 327 326 328 326 327 326 327 327 322 323 320 319 317 317 316 311 314 320 312 311 316 314 316 312 311 315 316 319 308 315 311 313 316 318 319 321 321 321 323 322 323 322 323 324 325 325 325 326 326 328 328 327
318 317 317 316 316 315 315 315 315 315 314 314 315 321 323 327 332 334 327 326 320 317 317 317 320 323 325 322 323 326 324 324 325 325 324 324 324 324 324 327 327 326 324 323 322 320 320 317 316 314 316 317 319 316 317 316 315 313 312 315 318 315 311 316 314 310 309 309 313 317 310 309 314 318 320 321 323 323 323 324 323 324 325 327 326 327 329
317 317 316 315 315 315 315 315 315 315 314 314 317 324 329 330 333 336 334 331 322 316 316 317 319 323 326 319 324 324 324 323 324 324 324 323 323 324 325 323 326 322 322 319 318 317 318 314 314 323 319 323 316 313 317 319 318 315 314 316 318 315 316 315 311 310 309 315 318 320 319 317 320 320 321 323 324 324 323 323 324 325 326 327 326 325 326
317 316 315 315 315 315 315 315 315 314 314 314 321 326 331 335 336 335 332 330 332 325 322 321 322 319 314 317 325 323 324 323 323 323 323 324 323 323 323 322 323 322 321 320 320 319 316 319 322 317 317 325 315 313 315 311 311 310 314 318 319 321 321 319 319 318 318 321 320 322 320 318 320 322 323 323 326 324 323 324 325 324 325 325 324 325 325
316 316 315 315 315 315 315 315 315 314 314 318 324 325 325 329 336 335 327 329 330 329 320 315 313 318 324 321 320 322 322 323 322 322 322 322 322 321 322 322 321 318 319 318 319 315 320 320 321 323 324 326 315 315 311 312 311 313 319 321 321 322 322 324 324 320 318 323 324 326 324 323 323 324 325 324 325 324 322 322 323 323 324 325 324 325 327
316 315 315 315 315 315 315 315 315 314 314 321 320 319 320 317 328 330 323 327 332 326 322 321 315 318 316 323 323 320 321 322 321 321 321 321 321 322 322 323 325 321 317 319 318 318 320 316 317 320 324 324 320 316 314 312 310 311 318 320 322 321 321 322 323 324 324 324 325 327 326 324 326 324 322 323 323 324 323 323 325 327 325 326 326 327 326
315 315 315 315 314 314 314 315 315 315 318 318 318 320 325 324 326 326 323 324 333 328 324 319 317 314 313 317 321 323 322 322 321 321 321 322 320 320 321 320 319 321 321 316 320 321 318 320 318 320 320 323 322 316 316 314 310 310 319 320 321 324 325 325 326 326 325 326 325 322 320 320 322 320 319 322 323 323 324 325 326 326 328 328 328 329 328
315 315 314 314 314 314 315 315 315 315 315 317 317 315 315 315 316 319 321 330 331 329 328 320 313 316 314 316 321 321 322 322 320 319 319 321 319 320 318 322 320 318 331 319 315 313 318 318 322 317 322 326 319 316 315 312 313 318 318 320 321 322 323 325 325 324 324 324 323 318 316 318 320 322 323 323 323 325 325 325 325 326 326 327 327 328 328
314 313 313 313 314 314 314 315 314 313 315 316 317 323 327 320 319 316 326 329 326 327 325 318 314 312 313 321 314 321 322 317 318 318 315 321 324 320 318 318 320 316 321 316 320 317 319 319 318 319 323 320 322 317 311 314 318 319 320 321 322 323 323 322 322 321 323 322 324 323 323 323 324 324 323 323 324 325 326 325 325 324 325 325 325 326 327
313 313 313 314 314 314 314 313 316 318 319 321 323 331 324 318 320 322 323 328 318 319 319 318 317 311 311 314 311 317 322 317 316 318 314 319 322 318 321 315 319 313 319 323 318 317 316 318 322 317 314 320 317 313 314 317 319 320 320 319 321 321 320 319 320 322 322 324 323 323 324 323 322 321 321 323 323 325 324 324 325 324 324 324 325 326 327
313 313 313 313 313 313 318 318 318 318 317 318 324 327 321 321 315 329 331 333 325 319 318 317 314 308 309 310 310 316 321 315 320 320 319 321 318 322 320 319 313 316 325 318 313 316 314 322 317 311 318 313 311 313 318 320 320 319 319 318 320 320 320 321 321 322 323 324 323 323 323 322 321 321 322 323 324 325 324 324 325 325 325 325 326 326 327
312 312 312 313 317 320 319 320 326 324 321 327 324 324 318 323 328 331 332 328 330 331 320 318 314 313 312 313 318 321 317 310 317 316 319 315 314 321 317 315 309 317 317 315 315 312 321 325 318 312 313 310 313 322 324 322 321 320 320 322 323 324 324 324 324 323 322 322 322 321 321 322 321 322 323 323 323 324 323 323 325 326 326 326 326 326 328
311 311 313 315 317 316 317 321 325 324 322 319 319 324 324 322 316 322 323 320 324 324 319 316 311 317 320 315 312 321 316 314 319 313 315 318 314 314 319 315 314 313 306 310 315 325 323 320 316 312 314 320 324 324 323 323 324 324 324 324 323 324 325 325 325 322 320 318 318 320 321 321 321 322 322 322 323 323 324 325 326 326 327 327 328 329 329
310 312 314 317 317 314 317 326 328 322 325 326 326 318 316 324 319 315 319 321 323 316 320 314 310 314 314 314 316 321 317 314 314 315 311 319 314 309 317 308 314 314 307 307 315 321 311 313 315 313 310 318 318 320 323 324 323 325 324 324 324 325 325 324 324 323 321 320 321 322 322 320 320 321 323 323 324 326 326 327 328 328 328 328 328 329 329
315 312 314 316 316 319 328 327 322 328 325 319 322 318 312 321 314 308 321 316 316 319 319 312 316 316 315 314 316 316 321 316 312 310 312 315 318 309 315 313 317 312 306 307 311 318 309 306 313 312 312 315 318 322 324 323 323 324 325 324 326 325 326 325 325 325 325 324 325 324 325 325 325 324 324 324 325 326 326 327 327 328 330 330 330 329 328
317 316 316 314 318 319 323 324 326 324 319 316 316 318 315 309 316 317 317 314 312 315 321 317 318 314 316 317 317 315 321 323 325 323 319 313 318 318 312 308 319 310 308 307 318 317 313 309 309 308 311 318 320 323 323 324 324 324 325 326 325 325 325 325 325 326 326 325 325 325 326 326 326 326 327 326 325 325 326 327 328 327 327 328 328 329 331
313 311 312 315 316 319 321 321 321 318 317 317 310 305 311 311 316 315 315 308 309 316 319 318 314 314 313 316 318 321 318 324 323 319 315 311 317 313 310 311 315 307 305 316 319 314 311 307 309 307 315 321 322 324 322 323 323 323 324 324 324 325 325 325 325 326 327 326 325 326 328 329 328 327 329 328 327 327 326 326 327 328 328 329 330 329 329
314 316 316 315 315 316 320 310 317 315 300 304 303 297 307 305 308 308 313 314 321 317 319 322 322 322 323 323 320 323 320 324 318 317 313 312 318 317 310 310 311 304 310 319 313 310 308 307 306 312 319 322 324 323 324 323 325 323 325 325 325 325 325 325 325 326 327 327 328 329 330 330 328 329 329 329 328 328 327 328 329 330 330 330 328 330 329
317 316 313 314 311 313 315 296 315 310 300 305 301 295 303 304 307 310 309 312 315 315 319 314 317 316 311 319 318 316 318 318 317 317 314 319 315 312 308 306 308 316 319 312 310 306 309 309 312 316 321 323 323 324 324 324 324 325 325 325 325 325 325 326 326 326 326 327 329 329 330 329 329 329 329 329 328 328 327 328 329 329 329 328 329 327 329
310 310 310 307 302 311 307 294 314 305 296 302 306 306 305 302 306 310 309 317 317 315 319 319 319 316 314 317 320 318 315 312 320 312 310 314 309 310 308 308 312 315 309 306 307 309 310 308 315 319 320 320 322 324 325 325 325 325 324 324 324 324 324 324 325 325 325 326 327 327 327 329 329 329 328 328 328 328 327 326 328 328 328 328 327 326 328
307 302 300 296 291 300 300 296 300 298 308 310 308 310 310 310 311 311 317 318 316 318 315 318 317 317 315 318 312 315 315 318 312 310 315 315 308 307 312 316 315 306 308 306 305 303 306 311 315 318 322 322 324 324 325 325 326 326 324 322 322 323 324 325 325 326 326 326 327 327 327 328 329 328 327 327 328 328 327 327 328 327 327 326 324 324 326
307 311 306 303 296 300 310 299 302 308 310 311 312 313 313 315 317 319 322 321 324 323 319 320 319 317 316 312 314 316 316 317 312 315 314 310 308 310 315 310 305 306 303 303 303 306 309 314 318 321 323 323 324 324 325 325 324 324 324 324 323 323 325 325 326 327 328 328 327 326 328 327 326 327 326 327 326 326 325 326 326 326 324 322 322 323 323
296 310 310 294 293 300 301 306 312 312 313 315 315 316 320 320 318 318 324 325 326 324 321 318 316 316 317 320 317 313 313 316 311 314 313 312 312 308 308 306 304 307 308 305 306 312 314 317 319 321 322 325 324 323 324 324 324 324 324 323 323 323 324 325 327 327 327 327 326 327 327 326 326 326 325 324 324 323 324 323 323 322 321 321 321 321 321
309 304 297 298 305 306 306 310 310 308 312 313 315 315 316 315 317 318 324 326 324 318 321 317 318 315 312 315 312 312 310 315 305 305 311 310 307 301 302 301 303 301 308 310 310 313 316 319 322 323 323 324 324 324 323 325 325 324 323 323 323 323 325 325 326 328 327 327 327 327 327 327 327 325 324 323 321 320 322 321 321 320 320 319 319 319 320
302 300 307 305 305 305 309 313 310 305 309 314 316 316 319 316 317 318 323 321 321 322 321 317 318 313 319 312 303 309 309 310 309 310 308 306 307 307 306 302 305 305 306 311 312 316 319 320 323 323 324 324 324 324 324 324 325 325 325 325 324 325 325 326 327 327 327 327 326 326 327 327 326 324 322 320 321 322 322 321 321 320 319 319 319 319 319
309 305 304 309 303 303 307 302 305 304 307 309 313 314 318 316 316 318 321 318 319 320 317 311 312 311 306 307 307 297 306 314 309 308 306 306 309 308 305 303 307 310 312 314 316 318 321 322 321 321 323 324 324 325 326 326 326 326 325 325 325 325 326 328 328 326 326 326 327 325 325 325 325 324 323 323 323 322 321 322 321 320 319 319 320 320 319
298 295 298 304 306 306 307 309 309 309 310 312 312 315 317 314 321 323 322 320 319 315 312 316 312 307 301 300 308 311 316 310 307 311 304 309 312 307 308 308 312 317 315 315 316 319 320 321 322 323 324 324 324 325 326 326 326 326 326 325 325 326 326 328 327 327 327 326 326 325 325 325 325 324 324 322 321 320 319 320 321 321 319 319 319 320 319
Wind_Speed
24 25 25 24 24 24 23 23 21 20 22 5 3 5 6 8 1 9 11 10 11 7 7 7 9 11 2 1 8 4 6 5 7 7 5 6 2 5 4 7 3 1 6 6 7 4 6 6 5 8 3 5 9 7 8 9 8 6 6 8 10 11 5 8 10 9 11 15 13 11 10 2 4 7 8 8 7 5 7 8 9 9 9 9 8 9 5
24 25 25 25 25 24 23 22 22 19 15 6 6 5 7 10 3 7 8 9 8 8 9 8 9 11 6 5 6 3 8 1 4 2 2 5 2 6 5 2 5 4 3 5 6 5 6 4 6 4 5 3 3 6 4 8 6 6 8 6 9 6 1 5 8 7 7 12 8 8 5 6 5 5 8 12 12 12 11 12 10 10 8 10 7 9 2
25 25 25 26 26 25 24 23 21 20 15 7 4 4 7 9 6 6 7 8 7 8 7 9 11 11 5 5 6 5 8 1 5 7 8 3 5 5 2 5 5 6 5 5 5 4 7 6 0 8 5 3 3 7 4 6 7 5 11 10 8 6 8 7 7 8 8 7 5 7 9 10 9 10 10 11 11 12 10 10 6 6 2 5 7 10 4
24 25 25 26 26 27 26 25 23 20 16 10 4 4 7 6 5 8 7 7 8 9 11 12 11 12 6 2 6 7 6 7 3 2 8 3 7 7 5 6 2 8 3 5 5 5 4 4 3 3 5 1 5 5 5 5 6 9 8 8 7 6 7 8 8 8 9 10 11 12 12 11 12 13 15 15 12 13 11 9 9 7 8 8 4 5 10
24 25 26 26 27 27 28 28 26 22 17 7 4 5 5 6 8 3 7 7 8 9 9 10 8 8 4 5 7 8 7 6 4 6 7 6 6 5 4 6 6 1 3 5 7 4 2 1 5 5 5 5 6 2 4 3 2 8 5 3 5 5 7 9 11 13 13 14 15 15 14 14 13 14 12 12 14 8 7 5 6 4 8 9 4 2 8
24 25 26 27 27 28 29 30 30 27 22 9 4 6 6 6 4 7 5 4 5 9 11 10 9 4 3 3 3 6 5 5 2 8 3 5 6 7 7 6 3 7 6 7 5 3 3 4 6 7 4 5 2 7 3 3 9 4 6 6 5 5 7 8 10 12 14 15 16 14 14 13 14 15 15 15 16 7 5 5 2 5 6 10 12 11 12
24 25 25 27 27 28 30 31 32 32 29 9 5 4 7 7 7 8 2 8 5 5 12 10 8 7 7 5 4 3 7 7 5 1 4 4 1 3 6 1 2 3 4 4 7 2 5 1 5 2 5 6 7 7 8 6 7 3 6 3 3 4 8 9 10 13 13 14 14 14 15 13 13 15 17 16 13 8 5 3 4 5 8 10 11 12 15
24 24 25 26 27 28 28 30 32 34 35 10 7 2 7 7 8 8 14 13 6 8 6 4 2 8 7 5 5 6 6 9 2 3 6 6 3 5 8 4 2 1 1 3 6 6 4 5 5 6 6 7 2 6 6 5 2 1 5 6 3 2 4 5 9 10 12 12 13 13 14 12 13 16 16 15 13 15 3 6 7 7 6 10 12 11 11
23 24 24 25 26 27 27 28 30 34 31 8 9 7 9 8 8 8 9 9 6 3 4 4 3 8 6 5 7 7 2 6 4 3 5 5 5 0 6 4 6 2 5 0 7 3 1 2 6 7 6 7 4 4 3 2 7 7 6 5 6 6 7 7 9 9 10 11 11 13 15 16 14 16 20 18 12 8 7 5 4 4 9 10 13 11 6
23 23 23 25 25 26 26 26 28 30 28 7 8 9 11 9 9 10 7 8 3 7 4 6 5 7 5 2 9 3 6 4 7 6 7 2 6 5 4 5 6 3 7 6 3 7 3 5 7 7 7 7 9 6 8 8 7 6 7 5 7 5 7 7 7 9 9 12 13 16 15 13 13 8 13 14 13 11 8 7 7 10 2 2 4 7 5
23 22 23 24 24 25 25 25 24 27 18 10 8 8 11 11 11 9 8 8 7 7 6 6 7 2 3 3 5 5 6 4 2 6 4 2 5 5 2 5 5 5 8 9 5 4 6 6 7 7 8 9 9 7 8 10 8 6 5 6 6 5 7 9 6 8 9 13 14 14 9 10 5 5 9 11 10 9 9 8 9 4 3 3 6 8 8
23 22 22 23 23 23 24 24 23 22 19 9 6 8 7 10 9 6 6 8 8 9 7 8 3 8 5 2 3 3 2 3 5 3 5 4 10 3 2 2 2 4 7 6 6 6 8 9 9 7 7 7 9 10 11 9 7 6 5 7 6 7 6 7 6 9 9 10 13 10 10 4 4 1 7 8 9 9 6 9 7 7 5 5 7 9 10
23 22 23 22 22 23 23 23 23 22 21 14 7 6 8 11 7 6 7 7 8 7 8 8 4 2 3 7 3 5 4 7 5 3 6 5 4 3 5 4 2 7 3 5 6 6 7 8 6 5 8 8 9 10 10 9 9 4 5 6 4 5 6 7 7 7 8 9 7 9 5 8 5 7 10 9 7 5 7 7 6 8 8 7 8 10 12
24 23 23 22 22 22 22 22 23 23 23 19 8 7 8 10 9 7 6 6 7 10 10 6 3 9 4 5 6 3 6 3 3 3 7 6 7 5 3 4 3 7 4 4 5 4 6 5 6 6 9 8 6 8 9 9 7 10 10 4 4 6 5 6 7 4 8 8 9 10 8 3 9 4 9 9 5 6 7 7 7 9 9 8 5 6 8
23 23 23 22 21 22 22 22 23 23 23 24 9 9 5 7 7 5 6 5 8 10 8 7 5 11 5 5 5 5 4 4 4 7 5 5 4 3 4 7 4 5 4 4 5 5 5 4 5 6 5 7 3 3 2 6 9 10 4 4 4 5 7 4 6 6 6 8 8 9 8 7 7 5 8 7 5 4 6 6 4 7 8 7 7 10 9
22 23 23 23 21 21 22 22 22 22 22 25 11 9 6 6 7 5 5 6 6 8 3 10 8 8 3 2 3 4 6 7 4 2 7 6 3 5 2 4 2 2 5 5 4 5 5 6 6 6 7 4 5 5 4 5 6 6 9 8 2 3 7 6 5 6 7 8 9 8 10 4 2 7 5 0 7 5 8 8 5 1 7 7 6 9 9
22 22 23 23 22 21 21 21 21 22 21 21 11 10 6 8 8 8 8 5 6 8 6 6 8 6 6 7 9 7 5 5 4 4 5 2 7 4 7 4 2 3 4 5 4 5 6 6 5 5 6 4 5 5 7 5 6 7 8 9 9 8 3 5 7 9 7 9 9 9 5 4 5 4 2 4 4 7 7 8 2 1 6 6 7 9 9
21 21 22 23 22 22 21 20 21 21 21 23 13 7 7 6 8 9 6 6 7 8 3 8 7 6 4 7 6 6 5 4 4 4 7 3 1 4 3 1 5 5 3 6 3 5 6 5 7 7 4 2 3 2 4 6 3 4 6 8 6 6 8 6 9 7 8 8 8 7 3 2 3 8 6 5 7 7 7 7 3 5 6 6 6 7 8
20 21 21 22 22 23 22 22 21 21 21 23 17 10 3 8 8 8 6 6 6 6 7 5 3 8 6 6 7 4 5 7 6 6 3 6 2 7 2 2 5 3 5 5 3 5 6 7 8 5 5 3 2 3 5 4 4 4 7 6 6 6 3 6 6 8 7 5 7 7 3 2 7 4 5 6 8 3 5 3 3 6 7 7 8 8 7
19 20 20 21 21 22 22 23 22 21 20 21 15 6 11 11 8 7 7 6 6 7 10 5 7 9 6 6 6 5 2 6 4 5 5 3 2 8 3 4 5 6 4 3 6 5 5 6 4 4 4 3 5 5 4 2 2 4 3 2 5 4 4 5 6 7 5 3 7 4 3 4 5 8 2 8 5 4 2 3 4 4 7 8 8 7 7
19 19 20 20 21 21 21 22 21 20 20 20 17 8 9 6 10 8 6 5 6 8 1 6 5 2 5 5 4 3 5 6 6 3 5 3 3 3 5 3 3 2 2 3 5 4 3 3 7 3 5 5 2 3 3 3 4 6 5 1 6 6 6 4 4 5 5 6 5 3 4 6 8 7 5 1 3 2 0 2 5 4 6 7 8 7 6
17 19 19 19 20 19 19 20 19 18 19 19 19 8 8 9 10 9 10 6 6 7 8 10 7 7 5 3 4 2 8 7 6 3 5 5 4 2 3 4 6 2 3 4 4 3 4 4 2 5 5 3 4 4 5 4 5 7 3 2 3 2 3 2 5 5 4 5 6 6 7 6 6 8 6 5 5 4 5 3 4 5 6 5 6 8 8
13 18 18 18 19 19 19 19 17 17 17 17 15 6 8 11 10 12 12 7 6 9 10 11 7 6 6 4 2 5 4 1 5 4 3 6 1 4 5 4 2 1 1 3 4 3 5 6 4 6 6 3 6 5 4 2 4 5 3 5 5 5 4 3 3 1 1 2 4 1 3 5 7 6 6 5 3 1 1 5 7 6 6 7 7 8 9
12 15 18 18 18 19 18 18 19 17 18 15 11 8 9 9 11 11 9 6 6 7 8 9 6 7 7 7 6 6 6 5 3 4 5 2 6 4 6 1 4 4 1 3 2 5 5 5 5 2 6 4 5 4 6 3 3 5 7 2 5 3 2 2 3 3 3 0 5 6 5 6 6 5 4 4 4 3 3 6 7 8 8 10 11 9 9
13 13 17 18 18 18 18 18 18 18 17 17 17 9 9 10 6 8 8 8 7 6 6 4 7 6 7 7 1 3 4 5 3 6 6 4 4 4 7 6 3 5 4 3 2 5 2 5 4 3 6 4 3 5 1 5 2 4 5 3 1 4 4 5 3 3 3 3 4 4 6 6 2 2 3 2 3 6 7 7 7 8 9 10 10 9 10
13 13 15 18 17 17 17 18 18 18 17 17 13 8 7 8 9 9 6 6 6 5 7 7 4 6 5 5 7 6 6 5 6 4 5 3 6 7 4 2 3 4 3 2 2 4 4 5 5 4 7 2 1 5 4 3 6 2 4 5 1 2 4 3 5 4 4 2 2 3 8 3 3 4 2 4 6 7 8 9 9 10 9 10 9 8 9
14 13 14 16 16 16 17 17 17 18 18 17 13 9 7 8 9 7 5 6 7 4 7 6 5 3 5 9 4 4 5 5 3 5 4 7 7 6 3 1 2 3 4 5 2 5 1 5 4 4 3 3 2 5 4 4 2 4 3 4 4 2 4 4 4 5 1 2 4 6 6 5 6 7 9 9 9 9 9 9 10 10 8 9 11 10 10
14 14 14 15 16 17 16 16 17 19 18 20 14 10 8 7 7 5 4 4 4 5 7 9 8 11 11 12 6 5 5 5 6 6 6 5 4 2 2 3 4 3 5 2 2 4 3 4 3 2 4 3 3 3 2 3 3 5 5 2 1 3 5 3 4 3 3 5 5 5 6 6 6 9 10 10 9 8 8 8 8 9 8 8 10 11 11
13 13 13 15 16 16 15 16 16 17 19 18 11 11 8 8 7 6 1 4 4 6 6 8 9 9 7 4 8 6 7 6 7 6 7 6 5 4 3 4 4 6 8 2 4 2 4 5 2 5 2 4 2 4 2 4 3 5 3 3 4 4 2 2 3 3 4 4 6 7 6 7 9 10 10 9 7 8 10 10 10 11 11 11 11 12 12
13 13 14 15 16 16 16 15 15 15 17 11 8 6 5 4 3 2 7 4 5 5 5 6 7 5 4 7 7 5 7 8 8 7 7 7 10 8 5 8 7 5 4 5 4 3 2 5 3 3 5 5 5 3 6 4 4 3 4 3 4 2 2 2 2 3 5 6 7 8 8 9 9 9 9 8 7 8 10 11 11 11 12 13 12 11 11
12 13 14 15 16 16 16 15 14 15 15 8 7 5 4 4 4 5 10 7 5 4 5 5 7 8 12 6 5 8 9 9 7 7 8 6 11 1 4 7 0 1 6 5 3 4 2 6 4 4 1 4 2 4 4 5 5 3 7 3 1 2 3 3 4 5 6 7 8 9 9 8 7 9 10 9 10 11 11 11 12 13 10 10 12 12 12
11 13 15 15 16 16 16 16 13 12 8 7 7 5 3 3 3 8 10 8 6 6 5 6 6 7 7 5 7 5 9 10 8 6 6 6 8 5 9 3 2 4 4 5 3 3 5 4 6 3 5 4 2 4 5 5 5 4 4 2 1 3 3 5 4 5 7 7 8 9 9 9 9 9 10 12 12 11 12 12 12 13 13 11 11 11 12
11 13 15 16 17 18 17 17 16 10 9 14 20 24 24 23 18 15 11 8 6 5 5 5 7 6 4 5 6 8 9 7 7 6 6 6 5 2 6 1 3 4 7 2 5 6 4 5 3 4 3 6 3 4 5 5 4 4 4 5 4 4 5 5 6 6 6 6 6 8 9 10 11 12 12 13 12 11 12 13 13 11 11 11 12 12 12
12 14 15 17 18 18 18 17 16 18 17 8 8 5 7 15 13 13 9 6 5 5 4 5 5 7 8 1 6 6 7 6 6 6 5 5 3 2 3 3 2 6 5 6 2 5 5 5 5 3 4 4 3 5 6 2 3 2 3 4 3 3 4 6 6 6 6 8 7 8 9 10 11 12 11 10 11 10 11 12 12 13 12 12 12 11 11
13 15 15 17 19 18 20 18 10 5 7 8 8 4 7 8 4 6 9 3 4 4 5 6 5 6 7 5 6 6 8 7 6 5 5 4 4 6 2 5 3 4 2 4 6 5 5 5 3 5 5 1 4 5 4 0 1 4 3 4 4 5 6 6 6 7 8 8 9 9 9 12 13 12 10 10 11 12 12 12 12 12 12 11 11 12 11
14 15 17 18 21 18 11 7 7 6 7 8 1 5 6 7 5 5 7 5 5 6 5 6 6 9 7 7 5 1 6 8 4 4 6 4 7 5 6 4 6 7 4 4 6 3 6 3 3 6 2 5 4 2 3 1 2 2 3 4 5 4 5 6 7 8 9 9 11 10 12 12 11 11 11 11 11 11 12 12 11 10 10 11 11 11 10
15 15 18 19 12 5 7 7 7 7 2 5 4 4 3 4 5 6 5 5 6 5 5 5 7 8 8 5 1 3 4 6 5 6 6 6 5 3 6 5 7 1 4 6 6 7 1 2 3 4 4 6 2 4 4 3 2 2 3 4 3 4 4 5 7 9 10 11 11 10 11 12 12 10 10 11 11 11 12 11 10 10 10 11 11 10 10
14 15 8 7 7 7 7 5 1 4 6 1 3 2 4 4 5 5 4 6 6 6 6 6 9 8 7 7 6 5 5 4 4 6 5 4 5 5 5 5 4 4 8 7 3 3 2 2 4 6 4 5 6 5 4 3 3 2 3 3 5 4 4 5 7 8 10 11 10 11 12 12 12 11 11 12 12 12 10 9 9 9 10 11 11 10 9
10 5 5 6 5 7 2 3 3 5 7 3 6 3 4 4 4 5 5 5 5 7 7 9 10 10 9 9 4 6 4 2 7 4 6 5 5 4 4 6 3 3 5 5 1 1 7 5 4 5 5 8 6 5 3 4 1 2 2 3 5 4 5 5 6 8 9 9 10 11 10 11 12 12 10 11 10 9 9 9 8 6 7 8 9 10 11
4 5 4 5 8 3 4 5 7 0 5 5 5 5 5 5 6 6 5 6 6 6 5 10 9 9 11 10 6 6 7 6 5 6 5 3 2 3 3 5 2 3 6 6 2 4 5 6 4 5 4 3 6 4 2 1 2 1 1 3 3 4 5 6 7 8 9 10 10 11 11 11 11 10 10 10 8 8 7 8 9 9 8 7 8 9 9
4 5 7 5 5 5 7 9 8 5 5 6 5 4 5 5 7 4 2 7 7 5 6 8 7 9 9 10 7 6 6 3 0 2 3 3 2 4 3 4 1 5 5 5 2 3 3 6 6 3 5 5 5 4 3 3 2 1 1 2 3 5 6 8 9 9 10 10 9 9 10 10 11 10 6 9 8 9 8 8 6 8 11 10 10 10 8
4 4 5 8 9 8 7 6 5 5 5 5 5 6 4 5 4 7 5 5 7 6 8 7 8 8 9 9 7 5 3 3 2 4 5 5 4 4 4 3 3 4 4 2 3 3 5 6 5 3 5 5 5 3 1 2 0 2 2 4 5 5 7 8 9 9 10 10 9 9 8 9 9 9 7 6 6 6 6 8 7 7 7 7 6 8 9
14 10 7 6 4 5 4 4 5 4 3 5 5 2 4 6 8 8 7 5 3 7 3 2 5 6 4 7 6 3 2 4 5 4 4 3 2 3 4 4 3 5 3 4 4 5 5 6 4 6 6 5 4 3 2 1 1 2 4 4 5 6 8 8 9 10 10 9 8 8 8 8 6 7 8 7 7 7 5 5 6 6 7 6 5 5 5
7 5 4 4 4 5 4 5 5 4 3 3 4 4 8 10 8 8 8 8 8 7 7 9 8 8 8 5 4 4 4 3 3 3 4 3 3 4 4 6 6 0 1 5 6 6 5 0 6 8 7 6 4 3 1 2 3 3 3 4 6 6 6 8 9 10 10 8 7 8 7 7 7 5 7 5 5 6 6 6 7 8 7 7 6 6 6
3 4 4 3 2 1 2 2 4 5 5 7 8 10 9 11 9 10 10 5 6 6 9 7 4 7 6 7 5 7 4 4 4 5 5 4 5 4 5 2 3 2 4 4 3 1 4 5 5 7 6 6 4 4 2 2 2 2 3 5 6 7 7 9 9 9 9 8 9 9 9 8 6 6 5 6 6 6 7 8 8 8 8 7 7 7 6
4 2 2 2 2 2 3 2 2 4 7 8 9 10 10 11 8 8 6 7 5 6 9 10 9 7 5 6 4 4 4 4 6 6 4 4 5 5 4 2 3 4 5 4 4 5 3 8 6 6 6 6 4 4 2 3 2 2 4 5 7 7 8 8 8 9 9 9 8 7 6 7 7 7 6 7 8 9 9 8 8 8 7 7 8 7 7
4 3 2 3 4 3 6 4 7 7 7 9 12 11 11 5 3 5 5 6 4 4 9 7 9 9 8 9 5 5 5 4 4 4 5 5 6 1 3 4 6 5 6 5 4 3 5 7 6 6 5 5 4 4 3 2 2 2 4 5 8 7 7 8 9 9 9 9 8 8 7 8 8 7 7 8 9 9 9 9 9 9 8 8 7 7 7
3 2 2 3 4 3 9 10 8 10 11 10 9 10 8 3 2 4 3 4 5 8 2 4 5 7 6 5 5 5 4 4 5 5 2 2 1 3 4 5 5 4 4 5 3 7 9 7 7 5 5 3 4 3 3 3 3 4 5 5 6 6 7 8 8 8 9 8 8 7 8 8 8 8 9 9 9 9 9 9 9 8 8 8 8 8 8
3 2 2 2 4 5 7 10 11 13 11 10 7 10 8 5 2 4 4 5 7 4 7 7 1 3 3 3 6 6 2 5 4 3 3 4 4 5 4 5 5 6 5 3 5 9 8 8 6 6 4 4 4 3 3 2 3 3 4 5 6 7 7 7 7 7 8 7 7 7 7 7 7 8 9 9 9 9 8 7 8 7 7 8 8 9 9
3 2 4 5 5 8 9 6 4 7 9 7 2 3 5 4 8 7 3 5 9 2 5 4 5 3 2 4 3 4 5 5 4 4 6 6 5 4 5 6 5 3 1 6 8 9 8 7 6 5 5 4 4 1 2 2 2 2 3 4 5 6 6 7 6 7 6 6 7 7 8 8 8 9 9 8 6 6 7 8 8 9 9 9 9 10 10
2 3 5 7 9 6 4 5 4 6 6 8 8 5 3 7 8 7 9 9 9 10 8 7 6 5 4 4 3 2 3 5 5 6 5 6 5 6 7 5 2 4 7 7 8 6 6 7 5 5 5 4 3 2 2 1 2 2 3 4 5 5 6 6 6 7 7 7 7 8 9 9 8 8 7 6 6 8 8 8 8 9 9 9 9 9 9
3 3 6 7 9 10 10 9 9 8 8 6 8 9 8 7 8 10 10 8 8 9 9 6 6 4 3 4 5 1 3 3 6 5 7 4 3 4 4 3 3 5 5 5 5 10 8 7 6 5 4 3 3 2 2 1 1 2 2 4 5 5 5 5 5 6 6 7 8 8 7 7 8 7 7 8 8 8 9 8 7 10 10 9 8 9 10
Wind_Direction
348 348 348 349 350 351 350 351 351 353 344 294 308 307 259 232 260 123 161 163 189 211 249 226 220 230 154 135 215 143 211 277 49 283 113 240 144 298 251 26 320 333 302 33 289 358 295 289 269 4 330 45 89 76 321 16 309 305 280 260 51 324 287 288 272 281 286 276 264 262 256 336 279 238 235 244 260 300 301 295 325 315 300 280 284 274 70
349 348 348 348 349 349 350 350 352 351 2 328 307 265 264 278 178 157 152 186 198 238 240 217 210 241 142 247 43 60 8 288 263 282 50 329 4 340 9 191 251 320 233 296 294 51 277 101 312 280 13 51 16 68 26 32 326 303 29 327 27 293 163 317 312 301 288 287 213 225 201 154 267 321 341 333 315 303 305 312 298 292 322 348 330 291 117
349 348 348 348 347 348 349 350 348 351 347 331 288 286 298 299 251 136 167 191 205 237 248 281 306 293 216 188 227 150 211 182 338 330 18 341 342 292 311 5 42 274 38 302 316 326 288 312 57 330 274 248 77 83 349 30 308 3 29 360 342 300 307 310 301 308 307 300 359 348 337 325 331 310 284 274 299 320 324 296 329 296 356 9 293 289 322
349 349 348 348 347 346 347 348 349 347 349 327 240 268 297 274 270 136 165 187 213 238 263 279 278 301 116 253 221 214 205 152 207 250 275 165 298 267 327 255 236 282 263 261 229 259 153 251 323 322 321 82 127 110 310 265 279 59 20 348 315 286 288 279 274 280 283 294 307 296 292 295 294 310 312 305 308 305 308 321 294 321 356 317 308 258 303
350 350 349 349 348 347 346 346 346 348 346 328 257 263 238 292 273 220 186 172 220 234 237 239 239 293 122 233 179 171 264 74 169 127 272 86 318 343 275 350 301 116 253 289 270 197 284 142 303 284 310 339 335 137 210 325 83 79 301 287 266 257 269 254 251 250 256 264 264 265 261 269 278 286 302 321 302 330 23 359 349 4 305 291 349 7 302
350 350 350 350 350 350 348 346 344 345 348 337 250 288 258 263 310 294 24 259 163 227 221 245 273 207 287 64 30 305 297 132 212 170 270 317 180 287 145 263 246 314 346 351 283 118 222 264 265 30 298 314 337 320 107 185 110 261 272 216 224 270 278 283 286 288 292 297 301 304 296 285 287 294 292 278 281 49 19 35 342 347 298 299 321 303 289
351 350 351 351 351 351 351 348 346 344 342 320 227 296 315 319 324 323 151 238 298 196 354 248 218 267 150 262 85 291 249 275 260 22 123 150 240 195 302 178 151 23 30 306 302 358 282 290 92 291 350 312 322 280 272 207 156 214 247 213 237 261 255 279 289 289 287 288 289 291 292 293 290 280 271 268 288 101 69 21 352 313 292 290 290 291 289
351 351 351 352 352 353 353 352 351 345 341 319 207 4 353 5 338 329 337 312 285 331 226 283 341 263 101 265 252 266 219 243 144 166 240 268 198 80 269 277 146 139 51 290 287 23 346 9 301 31 329 301 266 318 285 330 150 84 308 347 9 281 288 326 299 297 290 285 279 277 272 273 264 264 272 285 279 266 91 339 1 2 305 305 301 310 305
352 351 351 352 353 354 355 356 356 349 344 359 343 23 22 331 300 327 308 305 302 253 291 297 213 271 163 228 228 212 301 279 328 45 73 308 336 268 330 12 104 175 275 163 275 82 71 334 307 321 325 290 6 301 28 333 298 307 302 241 250 205 275 287 284 285 284 279 279 281 281 284 310 14 19 9 351 348 11 340 47 331 321 323 320 301 309
352 352 351 351 353 354 355 359 359 357 337 358 345 1 0 338 337 335 311 295 351 283 258 269 291 247 295 6 76 292 61 345 62 273 166 261 279 328 330 50 301 214 220 238 37 65 356 330 324 305 299 295 299 300 294 322 322 319 297 325 293 306 310 306 304 299 291 311 303 285 305 310 273 25 8 28 25 11 354 352 5 62 27 346 286 284 326
351 351 351 352 353 353 355 358 2 4 1 17 344 340 360 5 335 330 321 293 279 257 264 228 231 55 2 188 230 161 274 265 72 271 99 303 248 146 300 291 306 304 36 47 37 319 325 321 301 289 284 277 267 267 269 248 236 255 288 304 288 284 272 272 295 293 304 295 300 308 329 291 8 300 355 35 23 7 0 344 338 25 339 295 302 314 331
350 351 352 352 352 352 354 356 358 6 9 336 304 289 355 350 323 297 314 290 285 297 258 263 263 53 287 78 223 300 313 252 251 208 301 34 60 69 347 229 235 270 41 309 322 317 306 271 255 245 248 262 262 251 245 263 271 176 233 256 279 297 308 287 272 272 284 319 312 301 280 334 144 331 34 31 21 23 347 321 324 344 27 11 322 316 326
350 351 351 352 351 352 352 353 355 357 3 349 315 302 348 359 329 323 314 305 288 290 287 280 315 176 263 13 17 280 277 22 30 24 306 295 279 222 222 311 250 48 0 2 329 309 292 298 272 264 282 245 236 242 241 229 230 242 293 273 321 312 293 321 313 295 289 279 289 294 359 105 117 68 39 35 32 16 335 304 89 34 5 358 344 339 321
350 350 351 351 351 351 351 352 353 353 355 354 325 306 321 9 355 342 348 329 302 291 327 290 274 240 246 260 285 8 32 277 281 360 282 215 249 280 77 189 315 1 314 354 319 308 268 242 255 222 220 233 237 243 216 235 229 226 199 229 241 264 308 262 286 322 297 316 306 296 329 156 72 27 26 26 13 349 348 321 23 25 16 344 342 320 324
349 350 351 350 350 351 351 351 352 353 353 348 314 301 334 11 356 329 306 287 300 303 284 294 25 9 39 2 14 310 236 201 216 212 215 63 262 271 5 58 16 298 339 301 249 220 277 304 264 258 264 218 262 21 93 261 184 190 217 218 250 254 249 338 331 307 314 303 302 293 282 301 52 40 50 27 325 295 313 322 301 13 10 342 352 326 331
347 349 350 350 350 350 351 350 352 352 356 349 334 332 321 21 348 320 311 286 310 281 359 345 6 351 329 318 81 284 300 314 310 334 166 198 247 176 194 331 355 349 258 231 251 277 267 266 278 272 274 24 60 261 252 26 317 155 167 270 206 247 244 229 243 276 275 271 282 303 307 37 21 34 29 95 289 308 315 293 271 356 314 331 330 323 331
346 346 349 349 349 349 349 351 350 351 352 0 337 315 309 17 4 341 322 307 265 272 331 355 358 335 306 280 232 221 211 241 19 299 300 247 158 79 113 176 198 238 211 264 237 251 237 226 251 266 261 333 309 357 338 290 290 272 178 188 260 266 265 302 275 270 269 308 301 307 4 41 21 98 226 282 302 309 283 276 310 328 319 315 315 317 325
344 345 346 347 348 348 348 349 351 350 352 349 342 305 292 339 13 335 311 290 307 293 352 38 318 301 328 3 358 30 304 330 251 229 259 72 181 193 251 336 251 176 334 267 269 254 257 265 273 294 12 92 6 171 282 43 286 283 325 344 322 303 286 263 271 285 291 303 303 297 95 34 28 335 11 31 319 296 282 290 355 327 308 301 298 292 305
342 342 344 344 346 347 348 348 350 351 352 354 340 316 276 349 8 354 322 298 308 285 338 6 328 273 298 286 293 321 320 328 330 282 236 235 178 97 344 303 299 228 172 256 231 254 262 262 244 213 270 158 172 315 67 246 278 6 329 297 307 298 329 305 296 275 310 334 297 302 31 120 306 8 11 360 304 290 327 31 253 281 292 290 290 298 299
340 340 341 342 343 345 345 347 347 349 351 353 352 300 289 290 16 5 1 330 318 305 294 42 336 357 21 302 320 332 215 199 209 281 275 335 51 275 222 211 184 283 218 262 255 255 270 286 40 26 250 286 64 340 283 222 76 312 324 29 276 353 326 301 301 5 330 306 295 311 330 61 316 348 44 25 337 7 339 337 255 283 299 298 293 282 289
338 338 338 340 341 342 343 343 345 345 348 350 349 322 319 342 355 351 346 328 301 303 306 44 306 333 293 343 352 312 329 339 339 266 329 316 40 281 241 347 84 197 293 251 265 314 336 291 355 329 26 316 107 215 285 358 200 144 257 188 284 50 287 314 327 36 340 297 313 354 357 339 354 5 350 68 356 8 177 285 307 279 284 298 303 298 300
336 335 335 336 337 338 338 340 340 340 343 349 340 318 304 329 329 339 325 294 273 267 299 319 321 310 345 308 314 302 332 347 356 5 328 334 139 280 360 255 265 332 30 309 294 243 223 289 203 248 276 241 189 237 73 272 281 137 200 197 236 63 335 1 302 354 323 336 329 360 16 359 352 4 66 77 12 7 341 286 259 284 297 313 288 293 291
329 333 332 331 333 333 334 334 333 335 341 347 350 335 314 309 322 325 316 302 253 257 268 271 252 255 235 242 305 325 305 268 280 287 318 325 353 211 288 276 214 25 306 353 338 323 334 310 307 359 308 315 351 328 210 227 301 139 208 163 41 151 68 133 268 212 4 212 91 112 356 338 344 349 73 116 176 222 192 291 300 294 291 274 279 286 293
322 328 328 327 328 329 329 330 330 331 336 340 342 320 309 306 297 316 333 294 273 287 277 255 267 240 223 192 180 181 225 193 307 353 331 313 322 317 203 285 37 251 49 28 319 308 340 314 342 2 286 22 338 284 290 263 298 20 317 188 132 100 155 163 272 48 341 114 30 350 344 322 338 353 112 152 181 197 228 272 283 293 308 302 297 306 302
318 319 324 322 323 324 324 325 325 327 331 335 335 303 275 277 292 343 334 329 323 324 305 303 234 36 77 66 186 201 258 76 155 215 195 291 303 348 30 64 69 6 45 327 156 263 251 301 301 257 277 60 312 281 67 287 113 25 286 321 278 119 5 283 299 354 315 358 4 330 312 301 339 336 324 302 214 231 249 267 268 271 276 283 288 296 295
312 313 318 318 318 319 320 322 324 324 327 328 321 308 312 294 306 304 312 317 299 270 270 276 251 169 213 175 208 251 121 199 186 193 330 5 11 30 55 49 27 343 316 274 285 273 295 245 243 276 287 144 301 283 272 28 311 318 317 321 359 84 177 279 29 307 67 263 259 315 286 230 198 246 331 344 334 319 301 293 292 291 291 294 297 292 292
302 309 312 313 313 314 317 318 320 323 324 325 322 297 279 279 287 295 338 342 326 237 229 243 297 234 231 255 156 157 134 239 174 223 152 244 215 167 200 127 253 188 242 218 157 316 261 287 313 292 286 359 325 294 321 258 294 313 285 292 9 359 278 6 314 286 292 338 352 353 337 328 328 330 342 334 328 321 314 319 315 308 313 301 293 297 297
296 301 308 307 308 313 313 315 318 322 324 321 301 281 265 263 265 283 317 356 352 315 325 312 303 330 336 280 155 186 170 223 234 206 218 179 311 322 226 138 258 244 202 209 242 210 264 258 253 24 275 290 288 245 216 308 263 239 258 342 39 297 17 310 304 315 316 346 1 349 322 299 319 330 320 324 317 316 316 309 292 286 287 292 303 302 300
290 298 301 304 304 307 308 311 317 321 324 321 299 292 268 232 250 239 316 8 314 302 289 275 280 275 280 11 143 205 190 205 220 224 229 194 163 223 221 262 262 283 306 247 197 249 261 269 298 274 335 50 311 297 299 259 245 271 70 55 310 23 54 319 353 330 308 354 333 332 322 317 317 315 317 306 316 315 310 311 314 313 309 305 303 303 303
285 294 298 298 301 301 305 307 315 320 326 314 304 296 281 162 184 71 33 340 330 304 296 316 291 275 265 216 223 228 196 188 227 223 239 234 206 186 233 198 200 225 239 309 1 283 302 285 271 262 123 126 261 297 272 283 270 298 117 102 73 279 360 4 323 328 329 338 328 315 313 310 307 303 303 311 313 317 310 309 306 301 303 302 294 291 290
283 290 293 294 296 298 299 304 310 319 316 305 310 288 273 208 105 32 14 338 333 301 293 271 278 298 291 274 238 225 218 185 219 223 223 221 283 246 189 256 205 303 269 220 199 264 303 251 236 243 196 103 352 289 294 287 285 304 56 18 52 277 268 286 346 332 319 322 316 314 307 299 304 313 308 314 318 313 308 307 308 309 308 294 289 290 289
282 287 290 292 293 293 295 297 304 312 298 282 277 291 358 8 7 330 323 308 303 272 262 286 280 247 268 238 193 221 225 194 199 215 227 227 235 190 255 276 279 177 199 267 292 271 235 266 279 281 256 104 189 266 275 273 289 319 68 304 36 308 6 318 315 327 317 314 321 313 305 308 317 314 308 305 305 309 305 307 302 298 301 296 293 289 288
282 287 288 289 291 292 292 294 294 298 287 285 293 283 274 266 267 271 283 279 265 254 282 271 259 305 275 275 178 183 234 188 199 193 226 173 264 70 263 236 227 292 87 280 228 255 248 246 200 251 81 125 244 256 262 276 304 354 352 340 2 13 339 334 312 307 304 318 317 304 307 309 307 303 296 301 312 318 311 300 297 295 291 292 294 293 288
284 286 287 288 290 290 290 291 290 285 274 257 276 232 203 207 214 230 260 278 270 275 257 254 261 243 253 329 274 148 219 227 203 185 221 154 270 197 237 257 195 264 180 242 158 233 234 250 248 171 145 229 215 256 263 301 20 3 356 340 8 336 328 304 303 314 328 316 315 302 299 298 294 293 301 312 314 307 304 304 303 301 299 298 295 295 297
286 288 289 290 291 290 291 286 290 248 262 269 257 79 68 126 161 184 206 276 289 230 212 228 261 272 259 228 246 172 187 236 222 180 250 163 202 253 188 243 124 243 168 235 258 255 260 244 232 244 244 205 230 236 257 78 43 346 9 348 18 359 319 317 325 325 311 314 307 300 303 298 305 312 311 311 311 312 309 303 300 298 299 300 304 306 309
291 292 293 296 293 287 285 247 208 248 237 245 265 100 132 162 175 216 223 236 255 294 271 253 221 236 248 243 235 180 153 232 196 163 236 210 193 212 264 252 245 230 240 206 253 205 245 116 204 238 227 235 250 321 100 96 63 44 28 4 4 336 328 318 311 311 309 304 305 315 304 316 320 315 314 313 306 304 303 301 302 310 310 307 303 306 304
294 298 302 293 281 242 244 248 213 218 296 43 27 105 137 254 222 226 213 225 213 227 267 278 264 250 237 254 215 149 185 228 166 220 191 199 228 183 226 217 245 148 202 236 237 251 91 97 224 263 242 260 113 107 96 85 67 24 32 346 340 323 322 319 317 312 310 313 318 315 325 334 317 308 308 306 307 308 307 313 315 308 303 303 309 315 316
301 305 294 285 267 260 253 237 322 7 334 18 133 208 184 177 231 195 201 222 188 177 221 234 250 256 268 268 252 116 188 229 174 206 194 215 234 203 210 240 239 235 234 238 221 348 111 159 239 255 260 83 109 126 128 103 88 72 352 346 324 318 321 313 322 320 317 318 321 328 324 314 309 310 310 308 309 311 313 314 313 316 323 320 311 314 313
293 273 263 253 260 256 309 21 314 346 315 239 229 265 226 202 222 224 205 194 167 210 213 224 230 232 245 246 208 147 251 276 211 191 242 155 224 216 212 242 156 232 259 259 144 243 241 229 232 236 225 141 148 128 109 98 40 73 343 330 304 328 330 329 325 319 325 322 313 310 304 305 307 308 305 303 308 311 308 305 302 311 316 318 319 316 314
227 248 252 240 232 310 349 157 141 264 260 261 216 234 253 206 233 234 196 195 197 222 201 217 219 231 228 238 229 204 176 222 215 208 222 188 142 261 159 249 131 230 256 251 141 215 255 251 212 239 84 131 102 116 115 75 51 35 353 297 328 337 334 326 325 330 319 312 313 309 307 305 304 302 309 306 303 300 305 314 320 326 328 325 328 333 330
275 279 259 279 1 331 315 324 306 269 236 232 231 220 262 241 219 250 214 221 220 219 204 231 185 216 213 228 222 237 130 247 310 313 258 232 92 272 220 235 160 259 248 251 91 257 228 264 254 277 107 141 120 97 53 63 24 326 283 307 2 342 344 333 334 325 325 319 312 312 322 333 324 315 323 314 314 309 319 321 342 334 327 341 336 328 327
335 299 305 298 275 273 285 264 248 247 237 236 244 228 225 258 228 222 214 217 219 226 194 216 212 206 203 199 200 185 139 276 260 204 218 205 151 237 257 244 150 242 259 95 203 235 244 241 240 154 134 114 112 105 95 79 137 335 341 16 344 359 338 340 331 329 325 320 327 330 328 323 320 318 310 319 328 326 330 323 329 340 341 329 330 316 328
293 264 252 277 271 239 225 253 213 223 219 211 208 238 215 227 226 227 207 204 173 222 203 258 242 213 203 180 180 163 62 147 219 193 224 192 93 249 254 248 250 243 209 217 245 231 239 242 201 131 139 132 123 118 119 104 68 359 342 356 4 0 345 340 335 327 322 334 335 327 326 321 321 320 324 336 338 334 336 346 350 341 341 345 344 339 2
287 296 257 213 241 236 214 232 189 216 233 218 185 214 207 224 220 217 232 206 194 191 185 211 190 197 171 177 139 137 156 180 273 245 218 195 203 202 201 231 217 333 18 254 242 220 197 129 85 124 127 128 133 124 128 91 35 10 356 342 358 353 343 333 339 331 339 344 331 333 338 341 336 345 339 5 2 356 4 6 359 353 0 356 4 5 15
279 218 234 229 225 136 101 264 207 198 213 213 220 222 214 220 220 217 223 185 202 177 172 211 173 200 180 153 192 163 204 171 133 238 206 180 213 224 238 226 283 227 224 260 262 118 260 112 116 108 122 120 121 115 98 75 62 12 346 345 356 333 348 346 342 337 341 342 340 349 346 355 358 17 8 17 25 3 21 28 21 16 21 21 15 6 6
229 231 198 204 288 248 212 235 177 215 220 222 217 221 229 230 240 232 200 189 207 159 191 169 192 212 189 156 176 174 204 158 169 207 208 190 240 216 197 206 192 235 249 133 226 263 17 111 139 122 113 107 113 107 104 87 56 36 354 353 336 354 9 343 342 343 346 346 351 10 0 339 11 22 27 40 38 29 27 28 26 16 14 17 11 4 7
272 262 250 253 260 223 207 226 211 218 223 217 223 227 232 230 277 294 355 348 45 225 198 187 191 189 173 163 178 161 206 172 199 184 216 207 210 48 4 261 240 221 243 256 291 237 148 112 107 111 107 115 117 114 94 84 48 5 11 354 351 2 359 350 348 347 355 355 0 10 11 14 14 31 43 47 42 34 25 20 22 26 28 27 22 20 18
230 253 230 213 218 215 217 226 249 249 237 237 226 228 216 103 311 315 318 82 227 204 223 190 197 157 169 178 220 182 180 191 212 155 203 245 136 206 194 232 244 232 248 246 198 96 100 108 103 101 115 121 104 89 81 64 24 12 5 2 348 351 11 354 350 352 354 4 11 14 18 28 30 43 47 43 46 40 33 30 30 30 32 31 27 27 31
277 282 236 240 236 239 236 227 236 245 244 237 229 231 230 159 190 243 278 76 298 230 186 165 225 225 112 217 214 143 185 234 213 154 163 231 220 209 212 239 236 240 209 226 88 104 100 101 105 105 107 108 93 84 79 63 46 4 13 346 345 16 16 358 349 358 3 5 21 28 38 40 58 55 49 47 47 44 40 34 34 36 39 39 39 36 41
232 229 237 246 254 249 262 274 297 272 277 282 288 301 310 242 184 205 198 211 204 236 250 179 159 200 119 224 187 212 174 180 208 160 203 203 204 219 240 224 216 276 175 116 112 111 117 118 113 116 96 88 91 95 91 64 71 21 8 356 10 8 9 9 2 5 18 23 26 38 49 48 49 55 57 56 57 67 62 54 50 49 48 49 48 44 47
245 250 250 248 253 259 338 290 289 297 301 294 302 309 276 273 250 209 209 213 180 176 200 194 180 186 172 191 165 178 211 161 203 201 205 204 194 210 207 234 121 91 83 83 94 105 102 103 110 104 104 98 102 86 90 71 70 23 12 8 17 17 30 32 19 22 27 36 46 50 49 51 60 72 75 63 54 65 77 77 74 70 61 50 45 45 51
215 208 232 239 251 264 270 286 291 280 294 311 300 276 274 259 254 212 207 211 196 195 186 170 178 187 163 178 197 82 32 194 215 189 206 213 167 235 113 21 20 113 115 120 102 95 100 99 91 91 95 105 105 108 115 113 103 53 15 27 27 29 37 40 39 39 44 58 62 66 69 70 79 83 78 68 62 54 56 61 71 72 70 65 56 54 51